owner,sensor,date,latitude,longitude,vertical_datum,sea_water_practical_salinity,qcFlag 
NERRS,ioos:station:NOAA.NERRS:gndblwq:1,2014-06-01T00:00:00Z,30.3571,-88.4629,0.55,8.5,1111122 
NERRS,ioos:station:NOAA.NERRS:gndblwq:1,2014-06-01T01:00:00Z,30.3571,-88.4629,0.41,8.4,1111122 
NERRS,ioos:station:NOAA.NERRS:gndblwq:1,2014-06-01T02:00:00Z,30.3571,-88.4629,0.34,8.5,1111122 
NERRS,ioos:station:NOAA.NERRS:gndblwq:1,2014-06-01T03:00:00Z,30.3571,-88.4629,0.37,7.3,1111122 
NERRS,ioos:station:NOAA.NERRS:gndblwq:1,2014-06-01T04:00:00Z,30.3571,-88.4629,0.39,7.9,1111122 
NERRS,ioos:station:NOAA.NERRS:gndblwq:1,2014-06-01T05:00:00Z,30.3571,-88.4629,0.37,7.8,1111122 
NERRS,ioos:station:NOAA.NERRS:gndblwq:1,2014-06-01T06:00:00Z,30.3571,-88.4629,0.41,7.6,1111122 
NERRS,ioos:station:NOAA.NERRS:gndblwq:1,2014-06-01T07:00:00Z,30.3571,-88.4629,0.44,7.6,1111122 
NERRS,ioos:station:NOAA.NERRS:gndblwq:1,2014-06-01T08:00:00Z,30.3571,-88.4629,0.48,7.7,1111122 
NERRS,ioos:station:NOAA.NERRS:gndblwq:1,2014-06-01T09:00:00Z,30.3571,-88.4629,0.53,7.7,1111122 
NERRS,ioos:station:NOAA.NERRS:gndblwq:1,2014-06-01T10:00:00Z,30.3571,-88.4629,0.57,7.7,1111122 
NERRS,ioos:station:NOAA.NERRS:gndblwq:1,2014-06-01T11:00:00Z,30.3571,-88.4629,0.61,7.7,1111122 
NERRS,ioos:station:NOAA.NERRS:gndblwq:1,2014-06-01T12:00:00Z,30.3571,-88.4629,0.67,7.7,1111122 
NERRS,ioos:station:NOAA.NERRS:gndblwq:1,2014-06-01T13:00:00Z,30.3571,-88.4629,0.72,7.9,1111122 
NERRS,ioos:station:NOAA.NERRS:gndblwq:1,2014-06-01T14:00:00Z,30.3571,-88.4629,0.77,8.1,1111122 
NERRS,ioos:station:NOAA.NERRS:gndblwq:1,2014-06-01T15:00:00Z,30.3571,-88.4629,0.83,8.8,1111122 
NERRS,ioos:station:NOAA.NERRS:gndblwq:1,2014-06-01T16:00:00Z,30.3571,-88.4629,0.88,9.2,1111122 
NERRS,ioos:station:NOAA.NERRS:gndblwq:1,2014-06-01T17:00:00Z,30.3571,-88.4629,0.92,9.3,1111122 
NERRS,ioos:station:NOAA.NERRS:gndblwq:1,2014-06-01T18:00:00Z,30.3571,-88.4629,0.92,9.5,1111122 
NERRS,ioos:station:NOAA.NERRS:gndblwq:1,2014-06-01T19:00:00Z,30.3571,-88.4629,0.9,9.5,1111122 
NERRS,ioos:station:NOAA.NERRS:gndblwq:1,2014-06-01T20:00:00Z,30.3571,-88.4629,0.85,9.4,1111122 
NERRS,ioos:station:NOAA.NERRS:gndblwq:1,2014-06-01T21:00:00Z,30.3571,-88.4629,0.81,9.2,1111122 
NERRS,ioos:station:NOAA.NERRS:gndblwq:1,2014-06-01T22:00:00Z,30.3571,-88.4629,0.76,9.2,1111122 
NERRS,ioos:station:NOAA.NERRS:gndblwq:1,2014-06-01T23:00:00Z,30.3571,-88.4629,0.69,9.1,1111122 
NERRS,ioos:station:NOAA.NERRS:gndblwq:1,2014-06-02T00:00:00Z,30.3571,-88.4629,0.6,8.2,1111122 
NERRS,ioos:station:NOAA.NERRS:gndblwq:1,2014-06-02T01:00:00Z,30.3571,-88.4629,0.51,8.0,1111122 
NERRS,ioos:station:NOAA.NERRS:gndblwq:1,2014-06-02T02:00:00Z,30.3571,-88.4629,0.43,8.0,1111122 
NERRS,ioos:station:NOAA.NERRS:gndblwq:1,2014-06-02T03:00:00Z,30.3571,-88.4629,0.43,8.0,1111122 
NERRS,ioos:station:NOAA.NERRS:gndblwq:1,2014-06-02T04:00:00Z,30.3571,-88.4629,0.47,7.9,1111122 
NERRS,ioos:station:NOAA.NERRS:gndblwq:1,2014-06-02T05:00:00Z,30.3571,-88.4629,0.5,8.0,1111122 
NERRS,ioos:station:NOAA.NERRS:gndblwq:1,2014-06-02T06:00:00Z,30.3571,-88.4629,0.51,8.0,1111122 
NERRS,ioos:station:NOAA.NERRS:gndblwq:1,2014-06-02T07:00:00Z,30.3571,-88.4629,0.52,8.0,1111122 
NERRS,ioos:station:NOAA.NERRS:gndblwq:1,2014-06-02T08:00:00Z,30.3571,-88.4629,0.55,7.7,1111122 
NERRS,ioos:station:NOAA.NERRS:gndblwq:1,2014-06-02T09:00:00Z,30.3571,-88.4629,0.6,7.8,1111122 
NERRS,ioos:station:NOAA.NERRS:gndblwq:1,2014-06-02T10:00:00Z,30.3571,-88.4629,0.64,7.7,1111122 
NERRS,ioos:station:NOAA.NERRS:gndblwq:1,2014-06-02T11:00:00Z,30.3571,-88.4629,0.67,7.7,1111122 
NERRS,ioos:station:NOAA.NERRS:gndblwq:1,2014-06-02T12:00:00Z,30.3571,-88.4629,0.71,7.9,1111122 
NERRS,ioos:station:NOAA.NERRS:gndblwq:1,2014-06-02T13:00:00Z,30.3571,-88.4629,0.72,8.1,1111122 
NERRS,ioos:station:NOAA.NERRS:gndblwq:1,2014-06-02T14:00:00Z,30.3571,-88.4629,0.77,8.5,1111122 
NERRS,ioos:station:NOAA.NERRS:gndblwq:1,2014-06-02T15:00:00Z,30.3571,-88.4629,0.81,8.7,1111122 
NERRS,ioos:station:NOAA.NERRS:gndblwq:1,2014-06-02T16:00:00Z,30.3571,-88.4629,0.86,8.8,1111122 
NERRS,ioos:station:NOAA.NERRS:gndblwq:1,2014-06-02T17:00:00Z,30.3571,-88.4629,0.91,9.2,1111122 
NERRS,ioos:station:NOAA.NERRS:gndblwq:1,2014-06-02T18:00:00Z,30.3571,-88.4629,0.95,9.7,1111122 
NERRS,ioos:station:NOAA.NERRS:gndblwq:1,2014-06-02T19:00:00Z,30.3571,-88.4629,0.96,10.0,1111122 
NERRS,ioos:station:NOAA.NERRS:gndblwq:1,2014-06-02T20:00:00Z,30.3571,-88.4629,0.94,9.9,1111122 
NERRS,ioos:station:NOAA.NERRS:gndblwq:1,2014-06-02T21:00:00Z,30.3571,-88.4629,0.89,9.8,1111122 
NERRS,ioos:station:NOAA.NERRS:gndblwq:1,2014-06-02T22:00:00Z,30.3571,-88.4629,0.84,9.6,1111122 
NERRS,ioos:station:NOAA.NERRS:gndblwq:1,2014-06-02T23:00:00Z,30.3571,-88.4629,0.79,9.5,1111122 
NERRS,ioos:station:NOAA.NERRS:gndblwq:1,2014-06-03T00:00:00Z,30.3571,-88.4629,0.74,9.3,1111122 
NERRS,ioos:station:NOAA.NERRS:gndblwq:1,2014-06-03T01:00:00Z,30.3571,-88.4629,0.68,8.9,1111122 
NERRS,ioos:station:NOAA.NERRS:gndblwq:1,2014-06-03T02:00:00Z,30.3571,-88.4629,0.6,8.6,1111122 
NERRS,ioos:station:NOAA.NERRS:gndblwq:1,2014-06-03T03:00:00Z,30.3571,-88.4629,0.54,8.3,1111122 
NERRS,ioos:station:NOAA.NERRS:gndblwq:1,2014-06-03T04:00:00Z,30.3571,-88.4629,0.53,8.2,1111122 
NERRS,ioos:station:NOAA.NERRS:gndblwq:1,2014-06-03T05:00:00Z,30.3571,-88.4629,0.56,8.0,1111122 
NERRS,ioos:station:NOAA.NERRS:gndblwq:1,2014-06-03T06:00:00Z,30.3571,-88.4629,0.61,8.0,1111122 
NERRS,ioos:station:NOAA.NERRS:gndblwq:1,2014-06-03T07:00:00Z,30.3571,-88.4629,0.62,8.0,1111122 
NERRS,ioos:station:NOAA.NERRS:gndblwq:1,2014-06-03T08:00:00Z,30.3571,-88.4629,0.6,8.0,1111122 
NERRS,ioos:station:NOAA.NERRS:gndblwq:1,2014-06-03T09:00:00Z,30.3571,-88.4629,0.61,8.0,1111122 
NERRS,ioos:station:NOAA.NERRS:gndblwq:1,2014-06-03T10:00:00Z,30.3571,-88.4629,0.66,8.0,1111122 
NERRS,ioos:station:NOAA.NERRS:gndblwq:1,2014-06-03T11:00:00Z,30.3571,-88.4629,0.69,8.1,1111122 
NERRS,ioos:station:NOAA.NERRS:gndblwq:1,2014-06-03T12:00:00Z,30.3571,-88.4629,0.7,8.2,1111122 
NERRS,ioos:station:NOAA.NERRS:gndblwq:1,2014-06-03T13:00:00Z,30.3571,-88.4629,0.75,8.4,1111122 
NERRS,ioos:station:NOAA.NERRS:gndblwq:1,2014-06-03T14:00:00Z,30.3571,-88.4629,0.8,8.3,1111122 
NERRS,ioos:station:NOAA.NERRS:gndblwq:1,2014-06-03T15:00:00Z,30.3571,-88.4629,0.83,8.8,1111122 
NERRS,ioos:station:NOAA.NERRS:gndblwq:1,2014-06-03T16:00:00Z,30.3571,-88.4629,0.85,9.0,1111122 
NERRS,ioos:station:NOAA.NERRS:gndblwq:1,2014-06-03T17:00:00Z,30.3571,-88.4629,0.9,9.2,1111122 
NERRS,ioos:station:NOAA.NERRS:gndblwq:1,2014-06-03T18:00:00Z,30.3571,-88.4629,0.89,9.3,1111122 
NERRS,ioos:station:NOAA.NERRS:gndblwq:1,2014-06-03T19:00:00Z,30.3571,-88.4629,0.89,9.2,1111122 
NERRS,ioos:station:NOAA.NERRS:gndblwq:1,2014-06-03T20:00:00Z,30.3571,-88.4629,0.86,9.2,1111122 
NERRS,ioos:station:NOAA.NERRS:gndblwq:1,2014-06-03T21:00:00Z,30.3571,-88.4629,0.85,9.1,1111122 
NERRS,ioos:station:NOAA.NERRS:gndblwq:1,2014-06-03T22:00:00Z,30.3571,-88.4629,0.79,9.1,1111122 
NERRS,ioos:station:NOAA.NERRS:gndblwq:1,2014-06-03T23:00:00Z,30.3571,-88.4629,0.79,9.0,1111122 
NERRS,ioos:station:NOAA.NERRS:gndblwq:1,2014-06-04T00:00:00Z,30.3571,-88.4629,0.77,8.7,1111122 
NERRS,ioos:station:NOAA.NERRS:gndblwq:1,2014-06-04T01:00:00Z,30.3571,-88.4629,0.71,8.5,1111122 
NERRS,ioos:station:NOAA.NERRS:gndblwq:1,2014-06-04T02:00:00Z,30.3571,-88.4629,0.64,8.5,1111122 
NERRS,ioos:station:NOAA.NERRS:gndblwq:1,2014-06-04T03:00:00Z,30.3571,-88.4629,0.61,8.4,1111122 
NERRS,ioos:station:NOAA.NERRS:gndblwq:1,2014-06-04T04:00:00Z,30.3571,-88.4629,0.57,8.4,1111122 
NERRS,ioos:station:NOAA.NERRS:gndblwq:1,2014-06-04T05:00:00Z,30.3571,-88.4629,0.58,7.9,1111122 
NERRS,ioos:station:NOAA.NERRS:gndblwq:1,2014-06-04T06:00:00Z,30.3571,-88.4629,0.61,8.0,1111122 
NERRS,ioos:station:NOAA.NERRS:gndblwq:1,2014-06-04T07:00:00Z,30.3571,-88.4629,0.61,8.0,1111122 
NERRS,ioos:station:NOAA.NERRS:gndblwq:1,2014-06-04T08:00:00Z,30.3571,-88.4629,0.63,8.0,1111122 
NERRS,ioos:station:NOAA.NERRS:gndblwq:1,2014-06-04T09:00:00Z,30.3571,-88.4629,0.61,8.1,1111122 
NERRS,ioos:station:NOAA.NERRS:gndblwq:1,2014-06-04T10:00:00Z,30.3571,-88.4629,0.67,8.1,1111122 
NERRS,ioos:station:NOAA.NERRS:gndblwq:1,2014-06-04T11:00:00Z,30.3571,-88.4629,0.69,8.2,1111122 
NERRS,ioos:station:NOAA.NERRS:gndblwq:1,2014-06-04T12:00:00Z,30.3571,-88.4629,0.71,8.2,1111122 
NERRS,ioos:station:NOAA.NERRS:gndblwq:1,2014-06-04T13:00:00Z,30.3571,-88.4629,0.72,8.3,1111122 
NERRS,ioos:station:NOAA.NERRS:gndblwq:1,2014-06-04T14:00:00Z,30.3571,-88.4629,0.77,8.5,1111122 
NERRS,ioos:station:NOAA.NERRS:gndblwq:1,2014-06-04T15:00:00Z,30.3571,-88.4629,0.76,8.5,1111122 
NERRS,ioos:station:NOAA.NERRS:gndblwq:1,2014-06-04T16:00:00Z,30.3571,-88.4629,0.77,8.5,1111122 
NERRS,ioos:station:NOAA.NERRS:gndblwq:1,2014-06-04T17:00:00Z,30.3571,-88.4629,0.77,8.6,1111122 
NERRS,ioos:station:NOAA.NERRS:gndblwq:1,2014-06-04T18:00:00Z,30.3571,-88.4629,0.79,8.7,1111122 
NERRS,ioos:station:NOAA.NERRS:gndblwq:1,2014-06-04T19:00:00Z,30.3571,-88.4629,0.81,8.8,1111122 
NERRS,ioos:station:NOAA.NERRS:gndblwq:1,2014-06-04T20:00:00Z,30.3571,-88.4629,0.78,8.8,1111122 
NERRS,ioos:station:NOAA.NERRS:gndblwq:1,2014-06-04T21:00:00Z,30.3571,-88.4629,0.75,8.5,1111122 
NERRS,ioos:station:NOAA.NERRS:gndblwq:1,2014-06-04T22:00:00Z,30.3571,-88.4629,0.7,8.5,1111122 
NERRS,ioos:station:NOAA.NERRS:gndblwq:1,2014-06-04T23:00:00Z,30.3571,-88.4629,0.68,8.4,1111122 
NERRS,ioos:station:NOAA.NERRS:gndblwq:1,2014-06-05T00:00:00Z,30.3571,-88.4629,0.66,8.4,1111122 
NERRS,ioos:station:NOAA.NERRS:gndblwq:1,2014-06-05T01:00:00Z,30.3571,-88.4629,0.62,8.4,1111122 
NERRS,ioos:station:NOAA.NERRS:gndblwq:1,2014-06-05T02:00:00Z,30.3571,-88.4629,0.59,8.3,1111122 
NERRS,ioos:station:NOAA.NERRS:gndblwq:1,2014-06-05T03:00:00Z,30.3571,-88.4629,0.56,8.3,1111122 
NERRS,ioos:station:NOAA.NERRS:gndblwq:1,2014-06-05T04:00:00Z,30.3571,-88.4629,0.54,8.3,1111122 
NERRS,ioos:station:NOAA.NERRS:gndblwq:1,2014-06-05T05:00:00Z,30.3571,-88.4629,0.53,8.3,1111122 
NERRS,ioos:station:NOAA.NERRS:gndblwq:1,2014-06-05T06:00:00Z,30.3571,-88.4629,0.54,8.3,1111122 
NERRS,ioos:station:NOAA.NERRS:gndblwq:1,2014-06-05T07:00:00Z,30.3571,-88.4629,0.54,8.2,1111122 
NERRS,ioos:station:NOAA.NERRS:gndblwq:1,2014-06-05T08:00:00Z,30.3571,-88.4629,0.58,8.2,1111122 
NERRS,ioos:station:NOAA.NERRS:gndblwq:1,2014-06-05T09:00:00Z,30.3571,-88.4629,0.6,8.2,1111122 
NERRS,ioos:station:NOAA.NERRS:gndblwq:1,2014-06-05T10:00:00Z,30.3571,-88.4629,0.6,8.3,1111122 
NERRS,ioos:station:NOAA.NERRS:gndblwq:1,2014-06-05T11:00:00Z,30.3571,-88.4629,0.6,8.2,1111122 
NERRS,ioos:station:NOAA.NERRS:gndblwq:1,2014-06-05T12:00:00Z,30.3571,-88.4629,0.63,8.2,1111122 
NERRS,ioos:station:NOAA.NERRS:gndblwq:1,2014-06-05T13:00:00Z,30.3571,-88.4629,0.67,8.2,1111122 
NERRS,ioos:station:NOAA.NERRS:gndblwq:1,2014-06-05T14:00:00Z,30.3571,-88.4629,0.7,8.2,1111122 
NERRS,ioos:station:NOAA.NERRS:gndblwq:1,2014-06-05T15:00:00Z,30.3571,-88.4629,0.72,8.2,1111122 
NERRS,ioos:station:NOAA.NERRS:gndblwq:1,2014-06-05T16:00:00Z,30.3571,-88.4629,0.72,8.4,1111122 
NERRS,ioos:station:NOAA.NERRS:gndblwq:1,2014-06-05T17:00:00Z,30.3571,-88.4629,0.73,8.4,1111122 
NERRS,ioos:station:NOAA.NERRS:gndblwq:1,2014-06-05T18:00:00Z,30.3571,-88.4629,0.73,8.5,1111122 
NERRS,ioos:station:NOAA.NERRS:gndblwq:1,2014-06-05T19:00:00Z,30.3571,-88.4629,0.73,8.5,1111122 
NERRS,ioos:station:NOAA.NERRS:gndblwq:1,2014-06-05T20:00:00Z,30.3571,-88.4629,0.7,8.4,1111122 
NERRS,ioos:station:NOAA.NERRS:gndblwq:1,2014-06-05T21:00:00Z,30.3571,-88.4629,0.68,8.4,1111122 
NERRS,ioos:station:NOAA.NERRS:gndblwq:1,2014-06-05T22:00:00Z,30.3571,-88.4629,0.65,8.3,1111122 
NERRS,ioos:station:NOAA.NERRS:gndblwq:1,2014-06-05T23:00:00Z,30.3571,-88.4629,0.64,8.3,1111122 
NERRS,ioos:station:NOAA.NERRS:gndblwq:1,2014-06-06T00:00:00Z,30.3571,-88.4629,0.62,8.2,1111122 
NERRS,ioos:station:NOAA.NERRS:gndblwq:1,2014-06-06T01:00:00Z,30.3571,-88.4629,0.59,8.3,1111122 
NERRS,ioos:station:NOAA.NERRS:gndblwq:1,2014-06-06T02:00:00Z,30.3571,-88.4629,0.57,8.3,1111122 
NERRS,ioos:station:NOAA.NERRS:gndblwq:1,2014-06-06T03:00:00Z,30.3571,-88.4629,0.59,8.3,1111122 
NERRS,ioos:station:NOAA.NERRS:gndblwq:1,2014-06-06T04:00:00Z,30.3571,-88.4629,0.6,8.3,1111122 
NERRS,ioos:station:NOAA.NERRS:gndblwq:1,2014-06-06T05:00:00Z,30.3571,-88.4629,0.62,8.3,1111122 
NERRS,ioos:station:NOAA.NERRS:gndblwq:1,2014-06-06T06:00:00Z,30.3571,-88.4629,0.63,8.3,1111122 
NERRS,ioos:station:NOAA.NERRS:gndblwq:1,2014-06-06T07:00:00Z,30.3571,-88.4629,0.64,8.3,1111122 
NERRS,ioos:station:NOAA.NERRS:gndblwq:1,2014-06-06T08:00:00Z,30.3571,-88.4629,0.63,8.3,1111122 
NERRS,ioos:station:NOAA.NERRS:gndblwq:1,2014-06-06T09:00:00Z,30.3571,-88.4629,0.62,8.3,1111122 
NERRS,ioos:station:NOAA.NERRS:gndblwq:1,2014-06-06T10:00:00Z,30.3571,-88.4629,0.6,8.3,1111122 
NERRS,ioos:station:NOAA.NERRS:gndblwq:1,2014-06-06T11:00:00Z,30.3571,-88.4629,0.62,8.3,1111122 
NERRS,ioos:station:NOAA.NERRS:gndblwq:1,2014-06-06T12:00:00Z,30.3571,-88.4629,0.64,8.3,1111122 
NERRS,ioos:station:NOAA.NERRS:gndblwq:1,2014-06-06T13:00:00Z,30.3571,-88.4629,0.65,8.3,1111122 
NERRS,ioos:station:NOAA.NERRS:gndblwq:1,2014-06-06T14:00:00Z,30.3571,-88.4629,0.64,8.3,1111122 
NERRS,ioos:station:NOAA.NERRS:gndblwq:1,2014-06-06T15:00:00Z,30.3571,-88.4629,0.63,8.3,1111122 
NERRS,ioos:station:NOAA.NERRS:gndblwq:1,2014-06-06T16:00:00Z,30.3571,-88.4629,0.65,8.3,1111122 
NERRS,ioos:station:NOAA.NERRS:gndblwq:1,2014-06-06T17:00:00Z,30.3571,-88.4629,0.64,8.3,1111122 
NERRS,ioos:station:NOAA.NERRS:gndblwq:1,2014-06-06T18:00:00Z,30.3571,-88.4629,0.61,8.3,1111122 
NERRS,ioos:station:NOAA.NERRS:gndblwq:1,2014-06-06T19:00:00Z,30.3571,-88.4629,0.58,8.3,1111122 
NERRS,ioos:station:NOAA.NERRS:gndblwq:1,2014-06-06T20:00:00Z,30.3571,-88.4629,0.58,8.3,1111122 
NERRS,ioos:station:NOAA.NERRS:gndblwq:1,2014-06-06T21:00:00Z,30.3571,-88.4629,0.56,8.3,1111122 
NERRS,ioos:station:NOAA.NERRS:gndblwq:1,2014-06-06T22:00:00Z,30.3571,-88.4629,0.52,8.2,1111122 
NERRS,ioos:station:NOAA.NERRS:gndblwq:1,2014-06-06T23:00:00Z,30.3571,-88.4629,0.5,8.2,1111122 
NERRS,ioos:station:NOAA.NERRS:gndblwq:1,2014-06-07T00:00:00Z,30.3571,-88.4629,0.53,8.2,1111122 
NERRS,ioos:station:NOAA.NERRS:gndblwq:1,2014-06-07T01:00:00Z,30.3571,-88.4629,0.54,8.2,1111122 
NERRS,ioos:station:NOAA.NERRS:gndblwq:1,2014-06-07T02:00:00Z,30.3571,-88.4629,0.52,8.2,1111122 
NERRS,ioos:station:NOAA.NERRS:gndblwq:1,2014-06-07T03:00:00Z,30.3571,-88.4629,0.49,8.2,1111122 
NERRS,ioos:station:NOAA.NERRS:gndblwq:1,2014-06-07T04:00:00Z,30.3571,-88.4629,0.5,8.4,1111122 
NERRS,ioos:station:NOAA.NERRS:gndblwq:1,2014-06-07T05:00:00Z,30.3571,-88.4629,0.53,8.3,1111122 
NERRS,ioos:station:NOAA.NERRS:gndblwq:1,2014-06-07T06:00:00Z,30.3571,-88.4629,0.53,8.2,1111122 
NERRS,ioos:station:NOAA.NERRS:gndblwq:1,2014-06-07T07:00:00Z,30.3571,-88.4629,0.51,8.3,1111122 
NERRS,ioos:station:NOAA.NERRS:gndblwq:1,2014-06-07T08:00:00Z,30.3571,-88.4629,0.54,8.3,1111122 
NERRS,ioos:station:NOAA.NERRS:gndblwq:1,2014-06-07T09:00:00Z,30.3571,-88.4629,0.59,8.3,1111122 
NERRS,ioos:station:NOAA.NERRS:gndblwq:1,2014-06-07T10:00:00Z,30.3571,-88.4629,0.62,8.3,1111122 
NERRS,ioos:station:NOAA.NERRS:gndblwq:1,2014-06-07T11:00:00Z,30.3571,-88.4629,0.64,8.3,1111122 
NERRS,ioos:station:NOAA.NERRS:gndblwq:1,2014-06-07T12:00:00Z,30.3571,-88.4629,0.65,8.3,1111122 
NERRS,ioos:station:NOAA.NERRS:gndblwq:1,2014-06-07T13:00:00Z,30.3571,-88.4629,0.63,8.3,1111122 
NERRS,ioos:station:NOAA.NERRS:gndblwq:1,2014-06-07T14:00:00Z,30.3571,-88.4629,0.61,8.3,1111122 
NERRS,ioos:station:NOAA.NERRS:gndblwq:1,2014-06-07T15:00:00Z,30.3571,-88.4629,0.63,8.3,1111122 
NERRS,ioos:station:NOAA.NERRS:gndblwq:1,2014-06-07T16:00:00Z,30.3571,-88.4629,0.64,8.3,1111122 
NERRS,ioos:station:NOAA.NERRS:gndblwq:1,2014-06-07T17:00:00Z,30.3571,-88.4629,0.6,8.3,1111122 
NERRS,ioos:station:NOAA.NERRS:gndblwq:1,2014-06-07T18:00:00Z,30.3571,-88.4629,0.53,8.3,1111122 
NERRS,ioos:station:NOAA.NERRS:gndblwq:1,2014-06-07T19:00:00Z,30.3571,-88.4629,0.5,8.3,1111122 
NERRS,ioos:station:NOAA.NERRS:gndblwq:1,2014-06-07T20:00:00Z,30.3571,-88.4629,0.49,8.3,1111122 
NERRS,ioos:station:NOAA.NERRS:gndblwq:1,2014-06-07T21:00:00Z,30.3571,-88.4629,0.49,8.3,1111122 
NERRS,ioos:station:NOAA.NERRS:gndblwq:1,2014-06-07T22:00:00Z,30.3571,-88.4629,0.47,8.3,1111122 
NERRS,ioos:station:NOAA.NERRS:gndblwq:1,2014-06-07T23:00:00Z,30.3571,-88.4629,0.45,8.3,1111122 
NERRS,ioos:station:NOAA.NERRS:gndblwq:1,2014-06-08T00:00:00Z,30.3571,-88.4629,0.46,8.4,1111122 
NERRS,ioos:station:NOAA.NERRS:gndblwq:1,2014-06-08T01:00:00Z,30.3571,-88.4629,0.48,8.4,1111122 
NERRS,ioos:station:NOAA.NERRS:gndblwq:1,2014-06-08T02:00:00Z,30.3571,-88.4629,0.5,8.4,1111122 
NERRS,ioos:station:NOAA.NERRS:gndblwq:1,2014-06-08T03:00:00Z,30.3571,-88.4629,0.49,8.3,1111122 
NERRS,ioos:station:NOAA.NERRS:gndblwq:1,2014-06-08T04:00:00Z,30.3571,-88.4629,0.46,8.4,1111122 
NERRS,ioos:station:NOAA.NERRS:gndblwq:1,2014-06-08T05:00:00Z,30.3571,-88.4629,0.47,8.4,1111122 
NERRS,ioos:station:NOAA.NERRS:gndblwq:1,2014-06-08T06:00:00Z,30.3571,-88.4629,0.52,8.4,1111122 
NERRS,ioos:station:NOAA.NERRS:gndblwq:1,2014-06-08T07:00:00Z,30.3571,-88.4629,0.54,8.4,1111122 
NERRS,ioos:station:NOAA.NERRS:gndblwq:1,2014-06-08T08:00:00Z,30.3571,-88.4629,0.55,8.4,1111122 
NERRS,ioos:station:NOAA.NERRS:gndblwq:1,2014-06-08T09:00:00Z,30.3571,-88.4629,0.56,8.4,1111122 
NERRS,ioos:station:NOAA.NERRS:gndblwq:1,2014-06-08T10:00:00Z,30.3571,-88.4629,0.6,8.5,1111122 
NERRS,ioos:station:NOAA.NERRS:gndblwq:1,2014-06-08T11:00:00Z,30.3571,-88.4629,0.65,8.5,1111122 
NERRS,ioos:station:NOAA.NERRS:gndblwq:1,2014-06-08T12:00:00Z,30.3571,-88.4629,0.66,9.0,1111122 
NERRS,ioos:station:NOAA.NERRS:gndblwq:1,2014-06-08T13:00:00Z,30.3571,-88.4629,0.67,9.2,1111122 
NERRS,ioos:station:NOAA.NERRS:gndblwq:1,2014-06-08T14:00:00Z,30.3571,-88.4629,0.67,9.4,1111122 
NERRS,ioos:station:NOAA.NERRS:gndblwq:1,2014-06-08T15:00:00Z,30.3571,-88.4629,0.66,9.0,1111122 
NERRS,ioos:station:NOAA.NERRS:gndblwq:1,2014-06-08T16:00:00Z,30.3571,-88.4629,0.64,8.5,1111122 
NERRS,ioos:station:NOAA.NERRS:gndblwq:1,2014-06-08T17:00:00Z,30.3571,-88.4629,0.59,8.4,1111122 
NERRS,ioos:station:NOAA.NERRS:gndblwq:1,2014-06-08T18:00:00Z,30.3571,-88.4629,0.51,8.6,1111122 
NERRS,ioos:station:NOAA.NERRS:gndblwq:1,2014-06-08T19:00:00Z,30.3571,-88.4629,0.44,8.4,1111122 
NERRS,ioos:station:NOAA.NERRS:gndblwq:1,2014-06-08T20:00:00Z,30.3571,-88.4629,0.41,8.5,1111122 
NERRS,ioos:station:NOAA.NERRS:gndblwq:1,2014-06-08T21:00:00Z,30.3571,-88.4629,0.39,8.4,1111122 
NERRS,ioos:station:NOAA.NERRS:gndblwq:1,2014-06-08T22:00:00Z,30.3571,-88.4629,0.37,8.5,1111122 
NERRS,ioos:station:NOAA.NERRS:gndblwq:1,2014-06-08T23:00:00Z,30.3571,-88.4629,0.35,8.6,1111122 
NERRS,ioos:station:NOAA.NERRS:gndblwq:1,2014-06-09T00:00:00Z,30.3571,-88.4629,0.38,8.5,1111122 
NERRS,ioos:station:NOAA.NERRS:gndblwq:1,2014-06-09T01:00:00Z,30.3571,-88.4629,0.41,8.5,1111122 
NERRS,ioos:station:NOAA.NERRS:gndblwq:1,2014-06-09T02:00:00Z,30.3571,-88.4629,0.44,8.6,1111122 
NERRS,ioos:station:NOAA.NERRS:gndblwq:1,2014-06-09T03:00:00Z,30.3571,-88.4629,0.47,8.9,1111122 
NERRS,ioos:station:NOAA.NERRS:gndblwq:1,2014-06-09T04:00:00Z,30.3571,-88.4629,0.52,8.8,1111122 
NERRS,ioos:station:NOAA.NERRS:gndblwq:1,2014-06-09T05:00:00Z,30.3571,-88.4629,0.55,9.3,1111122 
NERRS,ioos:station:NOAA.NERRS:gndblwq:1,2014-06-09T06:00:00Z,30.3571,-88.4629,0.54,9.5,1111122 
NERRS,ioos:station:NOAA.NERRS:gndblwq:1,2014-06-09T07:00:00Z,30.3571,-88.4629,0.57,9.4,1111122 
NERRS,ioos:station:NOAA.NERRS:gndblwq:1,2014-06-09T08:00:00Z,30.3571,-88.4629,0.61,10.1,1111122 
NERRS,ioos:station:NOAA.NERRS:gndblwq:1,2014-06-09T09:00:00Z,30.3571,-88.4629,0.62,10.0,1111122 
NERRS,ioos:station:NOAA.NERRS:gndblwq:1,2014-06-09T10:00:00Z,30.3571,-88.4629,0.65,10.0,1111122 
NERRS,ioos:station:NOAA.NERRS:gndblwq:1,2014-06-09T11:00:00Z,30.3571,-88.4629,0.68,10.9,1111122 
NERRS,ioos:station:NOAA.NERRS:gndblwq:1,2014-06-09T12:00:00Z,30.3571,-88.4629,0.68,10.2,1111122 
NERRS,ioos:station:NOAA.NERRS:gndblwq:1,2014-06-09T13:00:00Z,30.3571,-88.4629,0.71,11.3,1111122 
NERRS,ioos:station:NOAA.NERRS:gndblwq:1,2014-06-09T14:00:00Z,30.3571,-88.4629,0.72,11.1,1111122 
NERRS,ioos:station:NOAA.NERRS:gndblwq:1,2014-06-09T15:00:00Z,30.3571,-88.4629,0.71,10.1,1111122 
NERRS,ioos:station:NOAA.NERRS:gndblwq:1,2014-06-09T16:00:00Z,30.3571,-88.4629,0.7,9.8,1111122 
NERRS,ioos:station:NOAA.NERRS:gndblwq:1,2014-06-09T17:00:00Z,30.3571,-88.4629,0.65,9.5,1111122 
NERRS,ioos:station:NOAA.NERRS:gndblwq:1,2014-06-09T18:00:00Z,30.3571,-88.4629,0.57,9.7,1111122 
NERRS,ioos:station:NOAA.NERRS:gndblwq:1,2014-06-09T19:00:00Z,30.3571,-88.4629,0.48,9.8,1111122 
NERRS,ioos:station:NOAA.NERRS:gndblwq:1,2014-06-09T20:00:00Z,30.3571,-88.4629,0.39,9.2,1111122 
NERRS,ioos:station:NOAA.NERRS:gndblwq:1,2014-06-09T21:00:00Z,30.3571,-88.4629,0.35,9.8,1111122 
NERRS,ioos:station:NOAA.NERRS:gndblwq:1,2014-06-09T22:00:00Z,30.3571,-88.4629,0.38,9.9,1111122 
NERRS,ioos:station:NOAA.NERRS:gndblwq:1,2014-06-09T23:00:00Z,30.3571,-88.4629,0.39,9.4,1111122 
NERRS,ioos:station:NOAA.NERRS:gndblwq:1,2014-06-10T00:00:00Z,30.3571,-88.4629,0.38,9.1,1111122 
NERRS,ioos:station:NOAA.NERRS:gndblwq:1,2014-06-10T01:00:00Z,30.3571,-88.4629,0.41,9.0,1111122 
NERRS,ioos:station:NOAA.NERRS:gndblwq:1,2014-06-10T02:00:00Z,30.3571,-88.4629,0.46,9.8,1111122 
NERRS,ioos:station:NOAA.NERRS:gndblwq:1,2014-06-10T03:00:00Z,30.3571,-88.4629,0.49,9.8,1111122 
NERRS,ioos:station:NOAA.NERRS:gndblwq:1,2014-06-10T04:00:00Z,30.3571,-88.4629,0.54,10.1,1111122 
NERRS,ioos:station:NOAA.NERRS:gndblwq:1,2014-06-10T05:00:00Z,30.3571,-88.4629,0.58,10.1,1111122 
NERRS,ioos:station:NOAA.NERRS:gndblwq:1,2014-06-10T06:00:00Z,30.3571,-88.4629,0.6,10.5,1111122 
NERRS,ioos:station:NOAA.NERRS:gndblwq:1,2014-06-10T07:00:00Z,30.3571,-88.4629,0.64,10.4,1111122 
NERRS,ioos:station:NOAA.NERRS:gndblwq:1,2014-06-10T08:00:00Z,30.3571,-88.4629,0.67,10.4,1111122 
NERRS,ioos:station:NOAA.NERRS:gndblwq:1,2014-06-10T09:00:00Z,30.3571,-88.4629,0.71,9.4,1111122 
NERRS,ioos:station:NOAA.NERRS:gndblwq:1,2014-06-10T10:00:00Z,30.3571,-88.4629,0.78,8.8,1111122 
NERRS,ioos:station:NOAA.NERRS:gndblwq:1,2014-06-10T11:00:00Z,30.3571,-88.4629,0.84,8.6,1111122 
NERRS,ioos:station:NOAA.NERRS:gndblwq:1,2014-06-10T12:00:00Z,30.3571,-88.4629,0.87,8.4,1111122 
NERRS,ioos:station:NOAA.NERRS:gndblwq:1,2014-06-10T13:00:00Z,30.3571,-88.4629,0.89,8.4,1111122 
NERRS,ioos:station:NOAA.NERRS:gndblwq:1,2014-06-10T14:00:00Z,30.3571,-88.4629,0.9,8.1,1111122 
NERRS,ioos:station:NOAA.NERRS:gndblwq:1,2014-06-10T15:00:00Z,30.3571,-88.4629,0.88,8.7,1111122 
NERRS,ioos:station:NOAA.NERRS:gndblwq:1,2014-06-10T16:00:00Z,30.3571,-88.4629,0.87,8.3,1111122 
NERRS,ioos:station:NOAA.NERRS:gndblwq:1,2014-06-10T17:00:00Z,30.3571,-88.4629,0.83,8.8,1111122 
NERRS,ioos:station:NOAA.NERRS:gndblwq:1,2014-06-10T18:00:00Z,30.3571,-88.4629,0.77,9.8,1111122 
NERRS,ioos:station:NOAA.NERRS:gndblwq:1,2014-06-10T19:00:00Z,30.3571,-88.4629,0.69,9.6,1111122 
NERRS,ioos:station:NOAA.NERRS:gndblwq:1,2014-06-10T20:00:00Z,30.3571,-88.4629,0.61,9.7,1111122 
NERRS,ioos:station:NOAA.NERRS:gndblwq:1,2014-06-10T21:00:00Z,30.3571,-88.4629,0.53,9.6,1111122 
NERRS,ioos:station:NOAA.NERRS:gndblwq:1,2014-06-10T22:00:00Z,30.3571,-88.4629,0.38,9.5,1111122 
NERRS,ioos:station:NOAA.NERRS:gndblwq:1,2014-06-10T23:00:00Z,30.3571,-88.4629,0.29,9.2,1111122 
NERRS,ioos:station:NOAA.NERRS:gndblwq:1,2014-06-11T00:00:00Z,30.3571,-88.4629,0.24,8.3,1111122 
NERRS,ioos:station:NOAA.NERRS:gndblwq:1,2014-06-11T01:00:00Z,30.3571,-88.4629,0.27,6.2,1111122 
NERRS,ioos:station:NOAA.NERRS:gndblwq:1,2014-06-11T02:00:00Z,30.3571,-88.4629,0.26,7.6,1111122 
NERRS,ioos:station:NOAA.NERRS:gndblwq:1,2014-06-11T03:00:00Z,30.3571,-88.4629,0.4,7.5,1111122 
NERRS,ioos:station:NOAA.NERRS:gndblwq:1,2014-06-11T04:00:00Z,30.3571,-88.4629,0.41,8.4,1111122 
NERRS,ioos:station:NOAA.NERRS:gndblwq:1,2014-06-11T05:00:00Z,30.3571,-88.4629,0.48,7.9,1111122 
NERRS,ioos:station:NOAA.NERRS:gndblwq:1,2014-06-11T06:00:00Z,30.3571,-88.4629,0.54,8.3,1111122 
NERRS,ioos:station:NOAA.NERRS:gndblwq:1,2014-06-11T07:00:00Z,30.3571,-88.4629,0.59,8.5,1111122 
NERRS,ioos:station:NOAA.NERRS:gndblwq:1,2014-06-11T08:00:00Z,30.3571,-88.4629,0.65,8.5,1111122 